Location: Corralito
(10.2667°N, 66.9500°W)
Time: 08:39:12
(UTC+00:00)

Cosmos 1331 Rocket - Pass Details

Date: 11 December 2023
Orbit: 748 x 775 km, 74.0° (Epoch: 24 February)

Event Time Altitude Azimuth Distance (km) Brightness Sun altitude
Rises 09:50:14 0° 347° (NNW) 3,195 6.9 -11.0°
Reaches altitude 10° 09:52:35 10° 347° (NNW) 2,268 6.1 -10.4°
Maximum altitude 09:57:44 88° 261° (W) 753 4.0 -9.3°
Drops below altitude 10° 10:02:51 10° 168° (SSE) 2,260 6.9 -8.1°
Sets 10:05:12 0° 168° (SSE) 3,183 7.7 -7.6°
